Location: Church Tower
(37.7144°N, 119.6316°W)
Time: 20:38:42
(UTC+00:00)

Cosmos 676 Rocket - Pass Details

Date: 15 November 2025
Orbit: 750 x 779 km, 74.0° (Epoch: 08 December)

Event Time Altitude Azimuth Distance (km) Brightness Sun altitude
Exits shadow 13:36:10 - 333° (NNW) 2,761 6.5 -12.6°
Reaches altitude 10° 13:37:23 10° 330° (NNW) 2,299 6.1 -12.4°
Maximum altitude 13:42:22 47° 257° (WSW) 993 4.2 -11.4°
Drops below altitude 10° 13:47:17 10° 184° (S) 2,269 6.6 -10.5°
Sets 13:49:42 0° 179° (S) 3,187 7.4 -10.0°
